| time (UTC) | temp F | wind direction | speed MPH | gust MPH | rain 1hr in | rain 24hr in | rain mn in | humidity % | barometer mb |
| 20260831193006 | 96 | 29 | 3.0 | 8.0 | 0.00 | 0.00 | 0.00 | 44 | 1014.7 |
| 20260831192007 | 96 | 64 | 2.0 | 7.0 | 0.00 | 0.00 | 0.00 | 48 | 1014.7 |
| 20260831185007 | 95 | 58 | 1.0 | 6.0 | 0.00 | 0.00 | 0.00 | 48 | 1015.1 |
| 20260831184007 | 94 | 74 | 3.0 | 7.0 | 0.00 | 0.00 | 0.00 | 48 | 1015.3 |
| 20260831183006 | 96 | 154 | 1.0 | 7.0 | 0.00 | 0.00 | 0.00 | 46 | 1015.4 |
| 20260831182007 | 94 | 159 | 2.0 | 7.0 | 0.00 | 0.00 | 0.00 | 51 | 1015.4 |
| 20260831181007 | 94 | 101 | 3.0 | 8.0 | 0.00 | 0.00 | 0.00 | 50 | 1015.6 |
| 20260831180009 | 94 | 121 | 2.0 | 8.0 | 0.00 | 0.00 | 0.00 | 50 | 1015.6 |
| 20260831174007 | 94 | 198 | 2.0 | 4.0 | 0.00 | 0.00 | 0.00 | 52 | 1016.0 |
| 20260831173007 | 93 | 41 | 3.0 | 6.0 | 0.00 | 0.00 | 0.00 | 51 | 1016.2 |
| 20260831172006 | 93 | 75 | 1.0 | 6.0 | 0.00 | 0.00 | 0.00 | 53 | 1016.3 |
| 20260831171007 | 90 | 36 | 2.0 | 7.0 | 0.00 | 0.00 | 0.00 | 57 | 1016.5 |
| 20260831170006 | 89 | 243 | 1.0 | 3.0 | 0.00 | 0.00 | 0.00 | 58 | 1016.5 |
| 20260831165006 | 89 | 349 | 1.0 | 5.0 | 0.00 | 0.00 | 0.00 | 58 | 1016.7 |
| 20260831164006 | 88 | 265 | 1.0 | 6.0 | 0.00 | 0.00 | 0.00 | 59 | 1016.8 |
| 20260831163007 | 87 | 264 | 2.0 | 3.0 | 0.00 | 0.00 | 0.00 | 62 | 1016.8 |
| 20260831162006 | 87 | 259 | 3.0 | 7.0 | 0.00 | 0.00 | 0.00 | 62 | 1016.8 |
| 20260831161006 | 86 | 252 | 1.0 | 8.0 | 0.00 | 0.00 | 0.00 | 62 | 1016.9 |
| 20260831160006 | 85 | 227 | 2.0 | 4.0 | 0.00 | 0.00 | 0.00 | 63 | 1016.9 |
| 20260831155007 | 84 | 269 | 2.0 | 5.0 | 0.00 | 0.00 | 0.00 | 65 | 1016.8 |
| 20260831154008 | 84 | 80 | 1.0 | 4.0 | 0.00 | 0.00 | 0.00 | 66 | 1016.8 |
| 20260831152007 | 82 | 299 | 2.0 | 6.0 | 0.00 | 0.00 | 0.00 | 71 | 1016.7 |
| 20260831151007 | 82 | 269 | 2.0 | 8.0 | 0.00 | 0.00 | 0.00 | 74 | 1016.5 |
| 20260831150007 | 81 | 190 | 1.0 | 2.0 | 0.00 | 0.00 | 0.00 | 76 | 1016.5 |
| 20260831145007 | 80 | 198 | 1.0 | 4.0 | 0.00 | 0.00 | 0.00 | 78 | 1016.4 |
| 20260831144006 | 80 | 264 | 1.0 | 3.0 | 0.00 | 0.00 | 0.00 | 80 | 1016.6 |
| 20260831142007 | 79 | 132 | 1.0 | 4.0 | 0.00 | 0.00 | 0.00 | 82 | 1016.4 |
| 20260831141008 | 78 | 95 | 1.0 | 3.0 | 0.00 | 0.00 | 0.00 | 82 | 1016.3 |
| 20260831140007 | 78 | 73 | 1.0 | 3.0 | 0.00 | 0.00 | 0.00 | 83 | 1016.3 |
| 20260831135007 | 77 | 92 | 1.0 | 3.0 | 0.00 | 0.00 | 0.00 | 82 | 1016.3 |
| 20260831134006 | 77 | 178 | 0.0 | 3.0 | 0.00 | 0.00 | 0.00 | 82 | 1016.3 |
| 20260831133007 | 77 | 0 | 0.0 | 1.0 | 0.00 | 0.00 | 0.00 | 81 | 1016.2 |
| 20260831132006 | 77 | 0 | 0.0 | 0.0 | 0.00 | 0.00 | 0.00 | 80 | 1016.0 |
| 20260831131006 | 77 | 0 | 0.0 | 0.0 | 0.00 | 0.00 | 0.00 | 78 | 1015.9 |
| 20260831125006 | 77 | 0 | 0.0 | 1.0 | 0.00 | 0.00 | 0.00 | 77 | 1015.6 |
| 20260831124006 | 77 | 0 | 0.0 | 1.0 | 0.00 | 0.00 | 0.00 | 77 | 1015.5 |
| 20260831122006 | 78 | 0 | 0.0 | 1.0 | 0.00 | 0.00 | 0.00 | 77 | 1015.2 |
| 20260831120006 | 78 | 257 | 1.0 | 2.0 | 0.00 | 0.00 | 0.00 | 78 | 1015.1 |
| 20260831114006 | 77 | 242 | 1.0 | 5.0 | 0.00 | 0.00 | 0.00 | 78 | 1014.5 |
| 20260831113006 | 77 | 241 | 1.0 | 4.0 | 0.00 | 0.00 | 0.00 | 78 | 1014.4 |
| 20260831112005 | 77 | 223 | 0.0 | 3.0 | 0.00 | 0.00 | 0.00 | 78 | 1014.4 |
| 20260831111006 | 77 | 0 | 0.0 | 2.0 | 0.00 | 0.00 | 0.00 | 77 | 1014.5 |
| 20260831110006 | 77 | 0 | 0.0 | 3.0 | 0.00 | 0.00 | 0.00 | 77 | 1014.6 |
| 20260831105006 | 77 | 0 | 0.0 | 3.0 | 0.00 | 0.00 | 0.00 | 76 | 1014.6 |
| 20260831104006 | 77 | 0 | 0.0 | 0.0 | 0.00 | 0.00 | 0.00 | 75 | 1014.6 |
| 20260831103005 | 77 | 0 | 0.0 | 0.0 | 0.00 | 0.00 | 0.00 | 75 | 1014.6 |
| 20260831102006 | 77 | 0 | 0.0 | 0.0 | 0.00 | 0.00 | 0.00 | 74 | 1014.5 |
| 20260831100006 | 78 | 0 | 0.0 | 0.0 | 0.00 | 0.00 | 0.00 | 73 | 1014.3 |
| 20260831095006 | 78 | 0 | 0.0 | 0.0 | 0.00 | 0.00 | 0.00 | 73 | 1014.4 |
| 20260831094006 | 78 | 0 | 0.0 | 0.0 | 0.00 | 0.00 | 0.00 | 72 | 1014.3 |
| 20260831093006 | 78 | 0 | 0.0 | 1.0 | 0.00 | 0.00 | 0.00 | 72 | 1014.4 |
| 20260831092006 | 78 | 0 | 0.0 | 1.0 | 0.00 | 0.00 | 0.00 | 72 | 1014.3 |
| 20260831090006 | 79 | 0 | 0.0 | 2.0 | 0.00 | 0.00 | 0.00 | 71 | 1014.3 |
| 20260831084006 | 80 | 0 | 0.0 | 2.0 | 0.00 | 0.00 | 0.00 | 70 | 1014.2 |
| 20260831083006 | 80 | 0 | 0.0 | 0.0 | 0.00 | 0.00 | 0.00 | 69 | 1014.2 |
| 20260831082005 | 80 | 0 | 0.0 | 0.0 | 0.00 | 0.00 | 0.00 | 68 | 1014.1 |
| 20260831081006 | 81 | 0 | 0.0 | 0.0 | 0.00 | 0.00 | 0.00 | 68 | 1014.2 |
| 20260831080006 | 81 | 0 | 0.0 | 0.0 | 0.00 | 0.00 | 0.00 | 67 | 1014.2 |
| 20260831075005 | 81 | 0 | 0.0 | 0.0 | 0.00 | 0.00 | 0.00 | 67 | 1014.3 |
| 20260831074006 | 81 | 0 | 0.0 | 1.0 | 0.00 | 0.00 | 0.00 | 66 | 1014.1 |
| 20260831073006 | 81 | 0 | 0.0 | 1.0 | 0.00 | 0.00 | 0.00 | 66 | 1014.1 |
| 20260831072006 | 82 | 0 | 0.0 | 2.0 | 0.00 | 0.00 | 0.00 | 66 | 1014.1 |
| 20260831071006 | 82 | 0 | 0.0 | 1.0 | 0.00 | 0.00 | 0.00 | 65 | 1014.3 |
| 20260831070005 | 82 | 0 | 0.0 | 2.0 | 0.00 | 0.00 | 0.00 | 65 | 1014.3 |
| 20260831064006 | 82 | 0 | 0.0 | 1.0 | 0.00 | 0.00 | 0.00 | 64 | 1014.3 |
| 20260831063005 | 82 | 152 | 0.0 | 1.0 | 0.00 | 0.00 | 0.00 | 64 | 1014.4 |
| 20260831062007 | 82 | 147 | 1.0 | 2.0 | 0.00 | 0.00 | 0.00 | 64 | 1014.4 |
| 20260831061007 | 82 | 144 | 1.0 | 2.0 | 0.00 | 0.00 | 0.00 | 64 | 1014.2 |
| 20260831060005 | 82 | 161 | 1.0 | 2.0 | 0.00 | 0.00 | 0.00 | 64 | 1014.1 |
| 20260831055005 | 81 | 173 | 1.0 | 2.0 | 0.00 | 0.00 | 0.00 | 66 | 1014.0 |
| 20260831054005 | 81 | 175 | 0.0 | 2.0 | 0.00 | 0.00 | 0.00 | 65 | 1014.0 |
| 20260831053006 | 82 | 0 | 0.0 | 1.0 | 0.00 | 0.00 | 0.00 | 67 | 1014.0 |
| 20260831052006 | 82 | 0 | 0.0 | 1.0 | 0.00 | 0.00 | 0.00 | 66 | 1014.1 |
| 20260831050008 | 82 | 0 | 0.0 | 0.0 | 0.00 | 0.00 | 0.00 | 65 | 1013.8 |
| 20260831045005 | 82 | 0 | 0.0 | 0.0 | 0.00 | 0.00 | 0.00 | 64 | 1013.8 |
| 20260831044007 | 82 | 0 | 0.0 | 0.0 | 0.00 | 0.00 | 0.00 | 65 | 1013.9 |
| 20260831043005 | 82 | 0 | 0.0 | 0.0 | 0.00 | 0.00 | 0.00 | 65 | 1013.8 |
| 20260831042006 | 82 | 0 | 0.0 | 0.0 | 0.00 | 0.00 | 0.00 | 65 | 1013.7 |
| 20260831041006 | 83 | 0 | 0.0 | 1.0 | 0.00 | 0.00 | 0.00 | 65 | 1013.6 |
| 20260831040006 | 83 | 0 | 0.0 | 1.0 | 0.00 | 0.00 | 0.00 | 63 | 1013.6 |
| 20260831035006 | 83 | 0 | 0.0 | 0.0 | 0.00 | 0.00 | 0.00 | 63 | 1013.5 |
| 20260831034005 | 84 | 0 | 0.0 | 0.0 | 0.00 | 0.00 | 0.00 | 62 | 1013.4 |
| 20260831033006 | 84 | 0 | 0.0 | 0.0 | 0.00 | 0.00 | 0.00 | 60 | 1013.1 |
| 20260831032005 | 84 | 0 | 0.0 | 0.0 | 0.00 | 0.00 | 0.00 | 61 | 1013.1 |
| 20260831031007 | 85 | 0 | 0.0 | 0.0 | 0.00 | 0.00 | 0.00 | 60 | 1013.0 |
| 20260831030007 | 85 | 0 | 0.0 | 0.0 | 0.00 | 0.00 | 0.00 | 60 | 1012.8 |
| 20260831025005 | 86 | 0 | 0.0 | 1.0 | 0.00 | 0.00 | 0.00 | 60 | 1012.8 |
| 20260831023005 | 86 | 0 | 0.0 | 0.0 | 0.00 | 0.00 | 0.00 | 57 | 1012.6 |
| 20260831021006 | 87 | 0 | 0.0 | 1.0 | 0.00 | 0.00 | 0.00 | 56 | 1012.3 |
| 20260831020005 | 88 | 0 | 0.0 | 2.0 | 0.00 | 0.00 | 0.00 | 55 | 1012.3 |
| 20260831015006 | 88 | 0 | 0.0 | 0.0 | 0.00 | 0.00 | 0.00 | 53 | 1012.0 |
| 20260831014005 | 89 | 0 | 0.0 | 0.0 | 0.00 | 0.00 | 0.00 | 52 | 1011.9 |
| 20260831012005 | 90 | 0 | 0.0 | 0.0 | 0.00 | 0.00 | 0.00 | 51 | 1011.9 |
| 20260831005006 | 90 | 0 | 0.0 | 0.0 | 0.00 | 0.00 | 0.00 | 50 | 1011.7 |
| 20260831004005 | 91 | 0 | 0.0 | 0.0 | 0.00 | 0.00 | 0.00 | 49 | 1011.8 |
| 20260831003006 | 92 | 0 | 0.0 | 0.0 | 0.00 | 0.00 | 0.00 | 47 | 1011.9 |
| 20260831002005 | 92 | 0 | 0.0 | 0.0 | 0.00 | 0.00 | 0.00 | 49 | 1011.8 |
| 20260831001005 | 93 | 0 | 0.0 | 0.0 | 0.00 | 0.00 | 0.00 | 47 | 1011.7 |
| 20260831000005 | 93 | 0 | 0.0 | 2.0 | 0.00 | 0.00 | 0.00 | 47 | 1011.8 |
| 20260830235006 | 94 | 0 | 0.0 | 2.0 | 0.00 | 0.00 | 0.00 | 45 | 1011.8 |
| 20260830234005 | 95 | 177 | 0.0 | 2.0 | 0.00 | 0.00 | 0.00 | 43 | 1011.8 |
| 20260830233005 | 96 | 61 | 1.0 | 3.0 | 0.00 | 0.00 | 0.00 | 41 | 1011.8 |
| 20260830231005 | 96 | 80 | 1.0 | 3.0 | 0.00 | 0.00 | 0.00 | 42 | 1011.9 |
| 20260830224006 | 94 | 0 | 0.0 | 0.0 | 0.00 | 0.00 | 0.00 | 47 | 1011.9 |
| 20260830223005 | 94 | 0 | 0.0 | 0.0 | 0.00 | 0.00 | 0.00 | 45 | 1012.0 |
| 20260830221005 | 95 | 32 | 2.0 | 2.0 | 0.00 | 0.00 | 0.00 | 41 | 1012.0 |
| 20260830220005 | 97 | 45 | 2.0 | 6.0 | 0.00 | 0.00 | 0.00 | 39 | 1012.1 |
| 20260830215005 | 97 | 68 | 2.0 | 6.0 | 0.00 | 0.00 | 0.00 | 39 | 1012.2 |
| 20260830214005 | 99 | 37 | 2.0 | 5.0 | 0.00 | 0.00 | 0.00 | 41 | 1012.3 |
| 20260830213005 | 98 | 77 | 1.0 | 4.0 | 0.00 | 0.00 | 0.00 | 38 | 1012.4 |
| 20260830211005 | 94 | 0 | 0.0 | 1.0 | 0.00 | 0.00 | 0.00 | 53 | 1012.7 |
| 20260830210005 | 94 | 131 | 1.0 | 1.0 | 0.00 | 0.00 | 0.00 | 44 | 1012.7 |
| 20260830205005 | 94 | 329 | 1.0 | 3.0 | 0.00 | 0.00 | 0.00 | 43 | 1012.9 |
| 20260830204005 | 96 | 279 | 1.0 | 3.0 | 0.00 | 0.00 | 0.00 | 42 | 1013.1 |
| 20260830202006 | 94 | 136 | 1.0 | 3.0 | 0.00 | 0.00 | 0.00 | 47 | 1013.5 |
| 20260830201005 | 95 | 116 | 1.0 | 2.0 | 0.00 | 0.00 | 0.00 | 44 | 1013.6 |
| 20260830200005 | 96 | 112 | 2.0 | 5.0 | 0.00 | 0.00 | 0.00 | 42 | 1013.7 |
| 20260830195005 | 98 | 221 | 1.0 | 3.0 | 0.00 | 0.00 | 0.00 | 39 | 1013.9 |